Current Weather Conditions: station KGHG

sailwx.info

See reports from other nearby stations

no recent reports received from weather station ID KGHG

Tides Pressure Air temp Water temp Dewpoint Dewpoint depression Visibility Wind speed Wind direction Waves Ship positions
date/time (UTC)wind fromknots sea level pressurealtimeterstation pressurevisibilityair tempwater tempwave heightnotes
2016-Dec-09 04:35 250 6 gusting 13 8.7 1.0
2016-Dec-09 04:15 270 9 gusting 15 8.7 1.0
2016-Dec-09 03:55 8.7 1.0
2016-Dec-09 03:35 260 6 8.7 1.0
2016-Dec-09 03:15 260 7 gusting 13 8.7 1.0
2016-Dec-09 02:55 260 6 8.7 1.0
2016-Dec-09 02:35 8.7 2.0
2016-Dec-09 02:15 280 7 gusting 14 8.7 2.0
2016-Dec-09 01:55 280 8 gusting 14 8.7 2.0
2016-Dec-09 01:35 8.7 2.0
2016-Dec-09 01:15 8.7 2.0
2016-Dec-09 00:55 8.7 3.0
2016-Dec-09 00:35 270 2 8.7 3.0
2016-Dec-09 00:15 8.7 3.0
2016-Dec-08 23:55 8.7 3.0
2016-Dec-08 23:35 8.7 3.0
2016-Dec-08 23:15 8.7 3.0
2016-Dec-08 22:55 260 4 8.7 2.0
2016-Dec-08 22:35 8.7 3.0
2016-Dec-08 22:15 270 2 8.7 3.0
2016-Dec-08 21:55 270 4 8.7 4.0
2016-Dec-08 21:35 8.7 5.0
2016-Dec-08 21:15 8.7 5.0
2016-Dec-08 20:55 8.7 5.0
2016-Dec-08 20:35 8.7 6.0
2016-Dec-08 20:15 240 6 8.7 6.0
2016-Dec-08 19:55 240 4 8.7 6.0
2016-Dec-08 19:35 230 5 gusting 9 8.7 6.0
2016-Dec-08 19:15 8.7 6.0
2016-Dec-08 18:55 8.7 6.0
2016-Dec-08 18:35 8.7 6.0
2016-Dec-08 18:15 8.7 6.0
2016-Dec-08 17:55 220 4 8.7 6.0
2016-Dec-08 17:35 220 2 8.7 6.0
2016-Dec-08 17:15 250 2 8.7 6.0
2016-Dec-08 16:55 220 5 8.7 6.0
2016-Dec-08 16:35 230 4 8.7 5.0
2016-Dec-08 16:15 8.7 5.0
2016-Dec-08 15:55 220 5 8.7 5.0
2016-Dec-08 15:35 240 4 8.7 4.0
2016-Dec-08 15:15 230 4 8.7 4.0
2016-Dec-08 14:55 7.8 3.0
2016-Dec-08 14:35 8.7 3.0
2016-Dec-08 14:15 230 4 8.7 3.0
2016-Dec-08 13:55 250 4 2.6 2.0 Mist.
2016-Dec-08 13:35 1.7 1.0 Mist.
2016-Dec-08 13:15 1.5-0.0 Mist.
2016-Dec-08 12:55 1.7 1.0 Mist.
2016-Dec-08 12:35 240 2 0.7-0.0 Mist.
2016-Dec-08 12:15 250 4 0.9-0.0 Mist.
2016-Dec-08 11:55 250 2 1.7-0.0 Mist.
2016-Dec-08 11:35 250 2 2.2-0.0 Mist.
2016-Dec-08 11:15 240 2 2.6-0.0 Mist.
2016-Dec-08 10:55 240 4 2.6-0.0 Mist.
2016-Dec-08 10:35 250 2 3.5-0.0 Mist.
2016-Dec-08 10:15 250 2 3.5 1.0 Mist.
2016-Dec-08 09:55 260 4 3.5 1.0 Mist.
2016-Dec-08 09:35 260 4 3.5 1.0 Mist.
2016-Dec-08 09:15 250 2 6.1 1.0
2016-Dec-08 08:55 260 4 6.9 1.0
2016-Dec-08 08:35 8.7 2.0
2016-Dec-08 08:15 260 2 8.7 2.0
2016-Dec-08 07:55 8.7 2.0
2016-Dec-08 07:35 260 4 6.9 2.0
2016-Dec-08 07:15 260 2 6.1 2.0
2016-Dec-08 06:55 5.2 2.0 Mist.
2016-Dec-08 06:35 250 2 6.1 2.0
2016-Dec-08 06:15 260 5 4.3 2.0 Mist.
2016-Dec-08 05:55 3.5 2.0 Mist.
2016-Dec-08 05:35 2.2 1.0 Mist.
2016-Dec-08 05:15 250 2 2.2 1.0 Mist.
2016-Dec-08 04:55 1.7 1.0 Mist.
2016-Dec-08 04:35 2.2 1.0 Mist.
2016-Dec-08 04:15 1.7 2.0 Mist.
2016-Dec-08 03:55 0.2 2.0 Fog.
2016-Dec-08 03:35 1.7 2.0 Mist.
2016-Dec-08 03:15 1.3 2.0 Mist.
2016-Dec-08 02:55 2.6 3.0 Mist.
2016-Dec-08 02:35 3.5 3.0 Mist.
2016-Dec-08 02:15 5.2 4.0 Mist.
2016-Dec-08 01:55 220 4 4.3 4.0 Mist.
2016-Dec-08 01:35 220 4 3.5 4.0 Mist.
2016-Dec-08 01:15 230 2 2.2 4.0 Mist.
2016-Dec-08 00:55 1.7 4.0 Mist.
2016-Dec-08 00:35 2.2 4.0 Mist.
2016-Dec-08 00:15 1.7 3.0 Mist.
2016-Dec-07 23:55 2.2 4.0 Mist.
2016-Dec-07 23:35 2.2 4.0 Mist.
2016-Dec-07 23:15 2.6 4.0 Mist.
2016-Dec-07 22:55 2.6 4.0 Mist.
2016-Dec-07 22:35 3.5 4.0 Mist.
2016-Dec-07 22:15 3.5 4.0 Mist.
2016-Dec-07 21:55 3.5 4.0 Mist.
2016-Dec-07 21:35 6.1 4.0
2016-Dec-07 21:15 8.7 5.0
2016-Dec-07 20:55 7.8 5.0
2016-Dec-07 20:35 8.7 5.0
2016-Dec-07 20:15 280 2 8.7 6.0
2016-Dec-07 19:55 310 2 8.7 6.0
2016-Dec-07 19:35 8.7 6.0
2016-Dec-07 19:15 6.9 5.0
2016-Dec-07 18:55 330 2 8.7 5.0
2016-Dec-07 18:35 4.3 5.0 Mist.
2016-Dec-07 18:15 320 4 3.5 5.0 Mist.
2016-Dec-07 17:55 3.5 5.0 Mist.
2016-Dec-07 17:35 320 4 7.8 5.0
2016-Dec-07 17:15 340 2 3.5 5.0 Mist.
2016-Dec-07 16:55 1.7 5.0 Mist.
2016-Dec-07 16:35 1.3 5.0 Mist.
2016-Dec-07 16:15 1.1 6.0 Mist.
2016-Dec-07 15:55 0.7 6.0 Mist.
2016-Dec-07 15:35 1.5 6.0 Mist.
2016-Dec-07 15:15 2.6 6.0 Mist.
2016-Dec-07 14:55 1.3 5.0 Mist.
2016-Dec-07 14:35 1.1 5.0 Mist.
2016-Dec-07 14:15 2.6 5.0 Mist.
2016-Dec-07 13:55 1.3 5.0 Mist.
2016-Dec-07 13:35 0.7 4.0
2016-Dec-07 13:15 1.1 5.0
2016-Dec-07 12:55 1.3 5.0
2016-Dec-07 12:35 8.7 5.0
2016-Dec-07 12:15 090 4 gusting 13 5.0
2016-Dec-07 11:55 080 7 8.7 5.0
2016-Dec-07 11:35 080 6 7.8 5.0
2016-Dec-07 11:15 3.5 5.0 Mist.
2016-Dec-07 10:55 070 8 2.6 5.0
2016-Dec-07 10:35 070 8 6.9 5.0
2016-Dec-07 10:15 060 11 8.7 5.0
2016-Dec-07 09:55 070 11 8.7 5.0
2016-Dec-07 09:35 080 8 8.7 5.0
2016-Dec-07 09:15 070 9 gusting 14 8.7 5.0
2016-Dec-07 08:55 070 8 8.7 5.0
2016-Dec-07 08:35 080 6 gusting 13 8.7 5.0
2016-Dec-07 08:15 080 6 gusting 13 8.7 5.0
2016-Dec-07 07:55 070 7 8.7 5.0
2016-Dec-07 07:35 070 7 6.9 5.0
2016-Dec-07 07:15 070 7 8.7 5.0
2016-Dec-07 06:55 070 7 8.7 6.0
2016-Dec-07 06:35 070 6 8.7 6.0
2016-Dec-07 06:15 080 6 8.7 6.0
2016-Dec-07 05:55 080 6 gusting 12 8.7 6.0
2016-Dec-07 05:35 090 7 8.7 6.0
2016-Dec-07 05:15 080 6 8.7 6.0